Time,TemperatureF,DewpointF,PressureIn,WindDirection,WindDirectionDegrees,WindSpeedMPH,WindSpeedGustMPH,Humidity,HourlyPrecipIn,Conditions,Clouds,dailyrainin,SolarRadiationWatts/m^2,SoftwareType,DateUTC
2013-07-14 00:02:00,63.0,61.0,-100.00,ESE,119,4.0,16.0,93,0.00,,,0.02,0.000000,,2013-07-14 04:02:00,
2013-07-14 00:32:00,63.0,61.0,-100.00,ESE,120,6.0,14.0,94,0.00,,,0.02,0.000000,,2013-07-14 04:32:00,
2013-07-14 00:42:00,63.0,61.0,-100.00,ESE,120,6.0,14.0,94,0.00,,,0.02,0.000000,,2013-07-14 04:42:00,
2013-07-14 00:54:00,63.0,61.0,-100.00,ESE,120,6.0,14.0,94,0.00,,,0.02,0.000000,,2013-07-14 04:54:00,
2013-07-14 01:02:00,63.0,61.0,-100.00,ESE,120,6.0,14.0,94,0.00,,,0.02,0.000000,,2013-07-14 05:02:00,
2013-07-14 01:32:00,63.0,62.0,-100.00,SE,138,4.0,12.0,95,0.00,,,0.02,0.000000,,2013-07-14 05:32:00,
2013-07-14 01:43:00,63.0,62.0,-100.00,SE,138,4.0,12.0,95,0.00,,,0.02,0.000000,,2013-07-14 05:43:00,
2013-07-14 01:53:00,63.0,62.0,-100.00,SE,138,4.0,12.0,95,0.00,,,0.02,0.000000,,2013-07-14 05:53:00,
2013-07-14 02:01:00,63.0,62.0,-100.00,SE,138,4.0,12.0,95,0.00,,,0.02,0.000000,,2013-07-14 06:01:00,
2013-07-14 02:32:00,63.0,62.0,-100.00,SE,129,6.0,15.0,97,0.00,,,0.02,0.000000,,2013-07-14 06:32:00,
2013-07-14 02:42:00,63.0,62.0,-100.00,SE,129,6.0,15.0,97,0.00,,,0.02,0.000000,,2013-07-14 06:42:00,
2013-07-14 02:53:00,63.0,62.0,-100.00,SE,129,6.0,15.0,97,0.00,,,0.02,0.000000,,2013-07-14 06:53:00,
2013-07-14 03:02:00,63.0,62.0,-100.00,SE,129,6.0,15.0,97,0.00,,,0.02,0.000000,,2013-07-14 07:02:00,
2013-07-14 03:33:00,63.0,63.0,-100.00,SSE,151,5.0,16.0,99,0.03,,,0.05,0.000000,,2013-07-14 07:33:00,
2013-07-14 03:43:00,63.0,63.0,-100.00,SSE,151,5.0,16.0,99,0.03,,,0.05,0.000000,,2013-07-14 07:43:00,
2013-07-14 03:53:00,63.0,63.0,-100.00,SSE,151,5.0,16.0,99,0.03,,,0.05,0.000000,,2013-07-14 07:53:00,
2013-07-14 04:01:00,63.0,63.0,-100.00,SSE,151,5.0,16.0,99,0.03,,,0.05,0.000000,,2013-07-14 08:01:00,
2013-07-14 04:32:00,63.0,63.0,-100.00,SE,135,4.0,12.0,100,0.04,,,0.09,0.000000,,2013-07-14 08:32:00,
2013-07-14 04:42:00,63.0,63.0,-100.00,SE,135,4.0,12.0,100,0.04,,,0.09,0.000000,,2013-07-14 08:42:00,
2013-07-14 04:53:00,63.0,63.0,-100.00,SE,135,4.0,12.0,100,0.04,,,0.09,0.000000,,2013-07-14 08:53:00,
2013-07-14 05:01:00,63.0,63.0,-100.00,SE,135,4.0,12.0,100,0.04,,,0.09,0.000000,,2013-07-14 09:01:00,
2013-07-14 05:32:00,63.0,63.0,-100.00,SSE,152,4.0,14.0,100,0.37,,,0.45,0.000000,,2013-07-14 09:32:00,
2013-07-14 05:42:00,63.0,63.0,-100.00,SSE,152,4.0,14.0,100,0.37,,,0.45,0.000000,,2013-07-14 09:42:00,
2013-07-14 05:53:00,63.0,63.0,-100.00,SSE,152,4.0,14.0,100,0.37,,,0.45,0.000000,,2013-07-14 09:53:00,
2013-07-14 06:01:00,63.0,63.0,-100.00,SSE,152,4.0,14.0,100,0.37,,,0.45,0.000000,,2013-07-14 10:01:00,
2013-07-14 06:32:00,63.0,63.0,-100.00,SSE,164,4.0,15.0,100,0.09,,,0.53,0.000000,,2013-07-14 10:32:00,
2013-07-14 06:42:00,63.0,63.0,-100.00,SSE,164,4.0,15.0,100,0.09,,,0.53,0.000000,,2013-07-14 10:42:00,
2013-07-14 06:53:00,63.0,63.0,-100.00,SSE,164,4.0,15.0,100,0.09,,,0.53,0.000000,,2013-07-14 10:53:00,
2013-07-14 07:02:00,63.0,63.0,-100.00,SSE,164,4.0,15.0,100,0.09,,,0.53,0.000000,,2013-07-14 11:02:00,
2013-07-14 07:32:00,63.0,63.0,-100.00,SSE,154,4.0,12.0,100,0.04,,,0.57,2.000000,,2013-07-14 11:32:00,
2013-07-14 07:43:00,63.0,63.0,-100.00,SSE,154,4.0,12.0,100,0.04,,,0.57,2.000000,,2013-07-14 11:43:00,
2013-07-14 07:53:00,63.0,63.0,-100.00,SSE,154,4.0,12.0,100,0.04,,,0.57,2.000000,,2013-07-14 11:53:00,
2013-07-14 08:02:00,63.0,63.0,-100.00,SSE,154,4.0,12.0,100,0.04,,,0.57,2.000000,,2013-07-14 12:02:00,
2013-07-14 08:33:00,63.0,63.0,-100.00,SSE,148,7.0,20.0,100,0.05,,,0.62,17.000000,,2013-07-14 12:33:00,
2013-07-14 08:43:00,63.0,63.0,-100.00,SSE,148,7.0,20.0,100,0.05,,,0.62,17.000000,,2013-07-14 12:43:00,
2013-07-14 08:53:00,63.0,63.0,-100.00,SSE,148,7.0,20.0,100,0.05,,,0.62,17.000000,,2013-07-14 12:53:00,
2013-07-14 09:01:00,63.0,63.0,-100.00,SSE,148,7.0,20.0,100,0.05,,,0.62,17.000000,,2013-07-14 13:01:00,
2013-07-14 09:32:00,63.0,63.0,-100.00,SSE,149,5.0,16.0,100,0.11,,,0.73,46.000000,,2013-07-14 13:32:00,
2013-07-14 09:42:00,63.0,63.0,-100.00,SSE,149,5.0,16.0,100,0.11,,,0.73,46.000000,,2013-07-14 13:42:00,
2013-07-14 09:53:00,63.0,63.0,-100.00,SSE,149,5.0,16.0,100,0.11,,,0.73,46.000000,,2013-07-14 13:53:00,
2013-07-14 10:02:00,63.0,63.0,-100.00,SSE,149,5.0,16.0,100,0.11,,,0.73,46.000000,,2013-07-14 14:02:00,
2013-07-14 10:33:00,63.0,63.0,-100.00,SSE,158,4.0,12.0,100,0.13,,,0.86,65.000000,,2013-07-14 14:33:00,
2013-07-14 10:43:00,63.0,63.0,-100.00,SSE,158,4.0,12.0,100,0.13,,,0.86,65.000000,,2013-07-14 14:43:00,
2013-07-14 10:53:00,63.0,63.0,-100.00,SSE,158,4.0,12.0,100,0.13,,,0.86,65.000000,,2013-07-14 14:53:00,
2013-07-14 11:01:00,63.0,63.0,-100.00,SSE,158,4.0,12.0,100,0.13,,,0.86,65.000000,,2013-07-14 15:01:00,
2013-07-14 11:32:00,64.0,64.0,-100.00,SSE,156,4.0,13.0,100,0.02,,,0.88,180.000000,,2013-07-14 15:32:00,
2013-07-14 11:42:00,64.0,64.0,-100.00,SSE,156,4.0,13.0,100,0.02,,,0.88,180.000000,,2013-07-14 15:42:00,
2013-07-14 11:53:00,64.0,64.0,-100.00,SSE,156,4.0,13.0,100,0.02,,,0.88,180.000000,,2013-07-14 15:53:00,
2013-07-14 12:01:00,64.0,64.0,-100.00,SSE,156,4.0,13.0,100,0.02,,,0.88,180.000000,,2013-07-14 16:01:00,
2013-07-14 12:32:00,64.0,63.0,-100.00,SE,140,7.0,14.0,98,0.13,,,1.01,241.000000,,2013-07-14 16:32:00,
2013-07-14 12:43:00,64.0,63.0,-100.00,SE,140,7.0,14.0,98,0.13,,,1.01,241.000000,,2013-07-14 16:43:00,
2013-07-14 12:53:00,64.0,63.0,-100.00,SE,140,7.0,14.0,98,0.13,,,1.01,241.000000,,2013-07-14 16:53:00,
2013-07-14 13:02:00,64.0,63.0,-100.00,SE,140,7.0,14.0,98,0.13,,,1.01,241.000000,,2013-07-14 17:02:00,
2013-07-14 13:32:00,66.0,64.0,-100.00,SE,132,7.0,16.0,94,0.02,,,1.03,362.000000,,2013-07-14 17:32:00,
2013-07-14 13:43:00,66.0,64.0,-100.00,SE,132,7.0,16.0,94,0.02,,,1.03,362.000000,,2013-07-14 17:43:00,
2013-07-14 13:53:00,66.0,64.0,-100.00,SE,132,7.0,16.0,94,0.02,,,1.03,362.000000,,2013-07-14 17:53:00,
2013-07-14 14:01:00,66.0,64.0,-100.00,SE,132,7.0,16.0,94,0.02,,,1.03,362.000000,,2013-07-14 18:01:00,
2013-07-14 14:32:00,65.0,63.0,-100.00,SE,129,8.0,16.0,94,0.04,,,1.07,409.000000,,2013-07-14 18:32:00,
2013-07-14 14:42:00,65.0,63.0,-100.00,SE,129,8.0,16.0,94,0.04,,,1.07,409.000000,,2013-07-14 18:42:00,
2013-07-14 14:52:00,65.0,63.0,-100.00,SE,129,8.0,16.0,94,0.04,,,1.07,409.000000,,2013-07-14 18:52:00,
2013-07-14 15:02:00,65.0,63.0,-100.00,SE,129,8.0,16.0,94,0.04,,,1.07,409.000000,,2013-07-14 19:02:00,
2013-07-14 15:32:00,64.0,63.0,-100.00,SE,135,10.0,26.0,98,0.32,,,1.39,180.000000,,2013-07-14 19:32:00,
2013-07-14 15:43:00,64.0,63.0,-100.00,SE,135,10.0,26.0,98,0.32,,,1.39,180.000000,,2013-07-14 19:43:00,
2013-07-14 15:53:00,64.0,63.0,-100.00,SE,135,10.0,26.0,98,0.32,,,1.39,180.000000,,2013-07-14 19:53:00,
2013-07-14 16:02:00,64.0,63.0,-100.00,SE,135,10.0,26.0,98,0.32,,,1.39,180.000000,,2013-07-14 20:02:00,
2013-07-14 16:32:00,64.0,64.0,-100.00,SSE,147,7.0,22.0,99,0.10,,,1.49,156.000000,,2013-07-14 20:32:00,
2013-07-14 16:43:00,64.0,64.0,-100.00,SSE,147,7.0,22.0,99,0.10,,,1.49,156.000000,,2013-07-14 20:43:00,
2013-07-14 16:53:00,64.0,64.0,-100.00,SSE,147,7.0,22.0,99,0.10,,,1.49,156.000000,,2013-07-14 20:53:00,
2013-07-14 17:02:00,64.0,64.0,-100.00,SSE,147,7.0,22.0,99,0.10,,,1.49,156.000000,,2013-07-14 21:02:00,
2013-07-14 17:32:00,63.0,62.0,-100.00,SSE,147,9.0,19.0,97,0.00,,,1.49,217.000000,,2013-07-14 21:32:00,
2013-07-14 17:43:00,63.0,62.0,-100.00,SSE,147,9.0,19.0,97,0.00,,,1.49,217.000000,,2013-07-14 21:43:00,
2013-07-14 17:53:00,63.0,62.0,-100.00,SSE,147,9.0,19.0,97,0.00,,,1.49,217.000000,,2013-07-14 21:53:00,
2013-07-14 18:01:00,63.0,62.0,-100.00,SSE,147,9.0,19.0,97,0.00,,,1.49,217.000000,,2013-07-14 22:01:00,
2013-07-14 18:32:00,64.0,62.0,-100.00,SE,139,8.0,17.0,93,0.00,,,1.49,212.000000,,2013-07-14 22:32:00,
2013-07-14 18:42:00,64.0,62.0,-100.00,SE,139,8.0,17.0,93,0.00,,,1.49,212.000000,,2013-07-14 22:42:00,
2013-07-14 18:53:00,64.0,62.0,-100.00,SE,139,8.0,17.0,93,0.00,,,1.49,212.000000,,2013-07-14 22:53:00,
2013-07-14 19:01:00,64.0,62.0,-100.00,SE,139,8.0,17.0,93,0.00,,,1.49,212.000000,,2013-07-14 23:01:00,
2013-07-14 19:32:00,63.0,62.0,-100.00,ESE,123,9.0,21.0,95,0.00,,,1.49,68.000000,,2013-07-14 23:32:00,
2013-07-14 19:42:00,63.0,62.0,-100.00,ESE,123,9.0,21.0,95,0.00,,,1.49,68.000000,,2013-07-14 23:42:00,
2013-07-14 19:53:00,63.0,62.0,-100.00,ESE,123,9.0,21.0,95,0.00,,,1.49,68.000000,,2013-07-14 23:53:00,
2013-07-14 20:02:00,63.0,62.0,-100.00,ESE,123,9.0,21.0,95,0.00,,,1.49,68.000000,,2013-07-15 00:02:00,
2013-07-14 20:32:00,63.0,63.0,-100.00,SSE,151,7.0,19.0,99,0.10,,,1.59,19.000000,,2013-07-15 00:32:00,
2013-07-14 20:43:00,63.0,63.0,-100.00,SSE,151,7.0,19.0,99,0.10,,,1.59,19.000000,,2013-07-15 00:43:00,
2013-07-14 20:53:00,63.0,63.0,-100.00,SSE,151,7.0,19.0,99,0.10,,,1.59,19.000000,,2013-07-15 00:53:00,
2013-07-14 21:01:00,63.0,63.0,-100.00,SSE,151,7.0,19.0,99,0.10,,,1.59,19.000000,,2013-07-15 01:01:00,
2013-07-14 21:32:00,62.0,62.0,-100.00,SSE,156,7.0,19.0,100,0.02,,,1.61,9.000000,,2013-07-15 01:32:00,
2013-07-14 21:43:00,62.0,62.0,-100.00,SSE,156,7.0,19.0,100,0.02,,,1.61,9.000000,,2013-07-15 01:43:00,
2013-07-14 21:53:00,62.0,62.0,-100.00,SSE,156,7.0,19.0,100,0.02,,,1.61,9.000000,,2013-07-15 01:53:00,
2013-07-14 22:02:00,62.0,62.0,-100.00,SSE,156,7.0,19.0,100,0.02,,,1.61,9.000000,,2013-07-15 02:02:00,
2013-07-14 22:32:00,63.0,63.0,-100.00,SSE,159,7.0,19.0,100,0.00,,,1.61,0.000000,,2013-07-15 02:32:00,
2013-07-14 22:42:00,63.0,63.0,-100.00,SSE,159,7.0,19.0,100,0.00,,,1.61,0.000000,,2013-07-15 02:42:00,
2013-07-14 22:53:00,63.0,63.0,-100.00,SSE,159,7.0,19.0,100,0.00,,,1.61,0.000000,,2013-07-15 02:53:00,
2013-07-14 23:02:00,63.0,63.0,-100.00,SSE,159,7.0,19.0,100,0.00,,,1.61,0.000000,,2013-07-15 03:02:00,
2013-07-14 23:32:00,63.0,63.0,-100.00,SSE,151,6.0,20.0,100,0.00,,,1.61,0.000000,,2013-07-15 03:32:00,
2013-07-14 23:43:00,63.0,63.0,-100.00,SSE,151,6.0,20.0,100,0.00,,,1.61,0.000000,,2013-07-15 03:43:00,
2013-07-14 23:53:00,63.0,63.0,-100.00,SSE,151,6.0,20.0,100,0.00,,,1.61,0.000000,,2013-07-15 03:53:00,